AirNav   ATP
 
 351 users online  

F95 Calhoun County Airport
Blountstown, Florida, USA

GOING TO BLOUNTSTOWN?


FAA INFORMATION EFFECTIVE 08 NOVEMBER 2018

Location

FAA Identifier: F95
Lat/Long: 30-29-13.9550N / 085-06-49.6650W
30-29.232583N / 085-06.827750W
30.4872097 / -85.1137958
(estimated)
Elevation: 122 ft. / 37 m (estimated)
Variation: 02W (1995)
From city: 5 miles NW of BLOUNTSTOWN, FL
Time zone: UTC -6 (UTC -5 during Daylight Saving Time)
Zip code: 32421

Airport Operations

Airport use: Open to the public
Activation date: 12/1996
Control tower: no
ARTCC: JACKSONVILLE CENTER
FSS: GAINESVILLE FLIGHT SERVICE STATION
NOTAMs facility: GNV (NOTAM-D service available)
Attendance: MON-FRI 0700-1500
Wind indicator: lighted
Segmented circle: yes
Lights: ACTVT MIRL RY 18/36 AND PAPI RYS 18 & 36 - CTAF.
Beacon: white (unlighted land airport)
Operates sunset to sunrise.

Airport Communications

CTAF: 122.9
WX AWOS-AV: 119.350 (850-674-1347)

Nearby radio navigation aids

VOR radial/distance  VOR name  Freq  Var
MAIr178/17.9MARIANNA VORTAC114.0000E
SZWr262/38.5SEMINOLE VORTAC117.5002E

 
NDB name  Hdg/Dist  Freq  Var  ID
SOYYA168/23.832902WSMY ... -- -.--
LYNNE078/35.927804WPFN .--. ..-. -.

Airport Services

Fuel available: 100LL JET-A
Parking: hangars and tiedowns
Airframe service: MAJOR
Powerplant service: MAJOR
Bottled oxygen: NONE
Bulk oxygen: NONE

Runway Information

Runway 18/36

Dimensions: 3100 x 60 ft. / 945 x 18 m
Surface: asphalt, in good condition
Runway edge lights: medium intensity
RUNWAY 18  RUNWAY 36
Latitude: 30-29.488333N30-28.976833N
Longitude: 085-06.829333W085-06.826167W
Elevation: 120.9 ft.118.1 ft.
Gradient: 0.1% DOWN0.1% UP
Traffic pattern: leftleft
Runway heading: 182 magnetic, 180 true002 magnetic, 360 true
Markings: nonprecision, in good conditionnonprecision, in good condition
Visual slope indicator: 2-light PAPI on left (3.00 degrees glide path)2-light PAPI on left (3.00 degrees glide path)
Obstructions: 88 ft. tree, 1600 ft. from runway, 185 ft. left of centerline, 16:1 slope to clear
APPROACH SLOPE 20:1 TO THE DSPLCD THLD DUE TO 88 FT TREE 185 FT L OF CNTRLN AND 1600 FT FRM RY END.
15 ft. road, 425 ft. from runway, 125 ft. right of centerline, 15:1 slope to clear

Airport Ownership and Management from official FAA records

Ownership: Publicly-owned
Owner: CALHOUN COUNTY
20589 CENTRAL AVENUE EAST
BLOUNTSTOWN, FL 32424
Phone 850-674-4545
Manager: ROBERT FLECK
16701 AGRIPARK ROAD
ALTHA, FL 32421
Phone (850) 674-2499
CELL: 850-643-7582

Airport Operational Statistics

Aircraft based on the field: 11
Single engine airplanes: 11
    
Aircraft operations: avg 38/week *
50% transient general aviation
50% local general aviation
* for 12-month period ending 16 March 2017

Instrument Procedures

There are no published instrument procedures at F95.

Some nearby airports with instrument procedures:

KMAI - Marianna Municipal Airport (21 nm N)
2J9 - Quincy Municipal Airport (30 nm E)
1J0 - Tri-County Airport (33 nm NW)
17J - Donalsonville Municipal Airport (33 nm N)
KPAM - Tyndall Air Force Base (35 nm SW)
 
Loc | Ops | Rwys | IFR | FBO | Links
Com | Nav | Svcs | Stats | Notes


 
Area around F95 (Calhoun County Airport)
 
Road maps at: MapQuest Bing Google
 
Aerial photo
WARNING: Photo may not be current or correct
Aerial photo of F95 (Calhoun County Airport)
Photo by Brian Christopher
Photo taken 08-Aug-2010

Do you have a better or more recent aerial photo of Calhoun County Airport that you would like to share? If so, please send us your photo.

 
Sectional chart

 
Airport distance calculator
Flying to Calhoun County Airport? Find the distance to fly.

From to F95

Sunrise and sunset
Times for 15-Nov-2018
 Local
(UTC-6)
 Zulu
(UTC)
Morning civil twilight05:4211:42
Sunrise06:0712:07
Sunset16:4322:43
Evening civil twilight17:0823:08

Current date and time
Zulu (UTC)  15-Nov-2018 09:38:33
Local (UTC-6)  15-Nov-2018 03:38:33
 
METAR
KMAI 
21nm N 
150853Z AUTO 30010KT 10SM -RA BKN008 OVC016 15/07 A3010 RMK AO2 PRESRR SLP191 P0001 60006 T01500067 51001
K2J9 
30nm E 
150915Z AUTO 31008KT 3SM BR OVC005 10/10 A3007 RMK AO2
K1J0 
33nm NW 
150223Z AUTO 32003KT 9SM -RA BKN007 OVC110 11/11 A3015 RMK AO2 P0000 T01060106 $
K17J 
33nm N 
150915Z AUTO 33008KT 10SM -RA BKN007 OVC013 08/07 A3010 RMK AO2 T00760070
KPAM 
34nm SW 
150858Z AUTO 31008G15KT 6SM -RA FEW006 BKN008 BKN019 08/07 A3014 RMK AO2 SLP206 WND DATA ESTMD
KECP 
36nm W 
150853Z AUTO 32009KT 10SM BKN008 OVC020 07/06 A3010 RMK AO2 RAE30 CIG 006V010 SLP204 P0002 60007 T00670056 55008
KBGE 
38nm NE 
150915Z AUTO 32007KT 7SM OVC005 10/08 A3007 RMK AO2 PWINO
KTLH 
40nm E 
150853Z AUTO 35005KT 10SM -RA BKN006 OVC011 13/13 A3003 RMK AO2 CIG 004V010 SLP167 P0006 60023 T01330128 58010 $
TAF
KPAM 
34nm SW 
150730Z 1507/1609 34009KT 8000 -RA SCT007 OVC025 QNH3008INS TEMPO 1507/1509 34012G18KT BKN007 OVC025 BECMG 1508/1509 33012G18KT 9999 NSW SCT005 QNH3010INS BECMG 1511/1512 33009KT 9999 FEW160 QNH3014INS TEMPO 1512/1518 33012G18KT BECMG 1600/1601 35010G15KT 9999 SKC QNH3018INS TX12/1520Z TN06/1513Z
KECP 
36nm W 
150524Z 1506/1606 29012KT P6SM -RA OVC005 FM150900 31010KT P6SM OVC009 FM151200 31010KT P6SM BKN015 FM151500 30011KT P6SM SKC
KTLH 
40nm E 
150524Z 1506/1606 35006KT 6SM -RA BKN007 BKN070 OVC080 FM151100 31010KT P6SM OVC007 FM151400 30010KT P6SM BKN015 FM151800 30010KT P6SM SKC
NOTAMs
Click for the latest NOTAMs
NOTAMs are issued by the DoD/FAA and will open in a separate window not controlled by AirNav.

 

 
 

FBO, Fuel Providers, and Aircraft Ground Support

  
 Business Name 
 
 Contact 
 
 Services / Description 
 
Fuel Prices
 
Comments
  
Calhoun County Airport 850-674-2499
no information available

If you are affiliated with Calhoun County Airport and would like to show here your services, contact info, web link, logo, and more, click here
100LL Jet A
SS $4.24 $3.75 
 Updated 06-Sep-2018
 
   1 read write
SS=Self service
Update Fuel Prices
 

Aviation Businesses, Services, and Facilities

  
 Business Name 
 
 Contact 
 
 Services / Description 
 
Distance
 
Comments
  
 Sunset Eagle Aviation, LLC
850-625-3572
850-691-2318
[web site]
[email]
We strive to bring affordability back to General Aviation!

More info about Sunset Eagle Aviation, LLC
on airport  
   write
 

Would you like to see your business listed on this page?

 If your business provides an interesting product or service to pilots, flight crews, aircraft, or users of the Calhoun County Airport, you should consider listing it here.  To start the listing process, click on the button below
 
Add a business
 

Other Pages about Calhoun County Airport

Update a link
 
Copyright © AirNav, LLC. All rights reserved. Privacy Policy  Contact